Data supplied by UK-AIR on 5/5/2022
All Data GMT hour ending 
Status: R =Ratified P=Provisional,P*=As supplied
,,Northampton Spring Park,,,,,,,,,,,,,,,,,,,,,,,
Date,time,"Nitric oxide",status,unit,"Nitrogen dioxide",status,unit,"Nitrogen oxides as nitrogen dioxide",status,unit,"Ozone",status,unit,"PM<sub>2.5</sub> particulate matter (Hourly measured)",status,unit
 
01-01-2021,01:00,11.58207,R,ugm-3,29.13430,R,ugm-3,46.89322,R,ugm-3,2.47639,R,ugm-3,45.000,R,ugm-3 (BAM)
01-01-2021,02:00,2.22988,R,ugm-3,24.66067,R,ugm-3,28.07977,R,ugm-3,19.57749,R,ugm-3,25.000,R,ugm-3 (BAM)
01-01-2021,03:00,1.09830,R,ugm-3,18.96748,R,ugm-3,20.65152,R,ugm-3,26.63287,R,ugm-3,28.000,R,ugm-3 (BAM)
01-01-2021,04:00,0.93189,R,ugm-3,16.08748,R,ugm-3,17.51636,R,ugm-3,25.04424,R,ugm-3,33.000,R,ugm-3 (BAM)
01-01-2021,05:00,0.79876,R,ugm-3,17.83019,R,ugm-3,19.05494,R,ugm-3,22.52113,R,ugm-3,29.000,R,ugm-3 (BAM)
01-01-2021,06:00,0.73220,R,ugm-3,16.78750,R,ugm-3,17.91019,R,ugm-3,22.61457,R,ugm-3,34.000,R,ugm-3 (BAM)
01-01-2021,07:00,0.99846,R,ugm-3,18.67079,R,ugm-3,20.20173,R,ugm-3,18.26921,R,ugm-3,35.000,R,ugm-3 (BAM)
01-01-2021,08:00,1.99691,R,ugm-3,19.09674,R,ugm-3,22.15863,R,ugm-3,15.37230,R,ugm-3,32.000,R,ugm-3 (BAM)
01-01-2021,09:00,3.79413,R,ugm-3,17.56685,R,ugm-3,23.38442,R,ugm-3,14.15747,R,ugm-3,28.000,R,ugm-3 (BAM)
01-01-2021,10:00,3.42803,R,ugm-3,14.84038,R,ugm-3,20.09661,R,ugm-3,15.69937,R,ugm-3,22.000,R,ugm-3 (BAM)
01-01-2021,11:00,4.09366,R,ugm-3,12.24105,R,ugm-3,18.51791,R,ugm-3,22.61457,R,ugm-3,19.000,R,ugm-3 (BAM)
01-01-2021,12:00,2.59598,R,ugm-3,9.88681,R,ugm-3,13.86725,R,ugm-3,35.08997,R,ugm-3,12.000,R,ugm-3 (BAM)
01-01-2021,13:00,2.76239,R,ugm-3,11.22538,R,ugm-3,15.46098,R,ugm-3,31.91272,R,ugm-3,12.000,R,ugm-3 (BAM)
01-01-2021,14:00,3.06193,R,ugm-3,12.11369,R,ugm-3,16.80858,R,ugm-3,29.43633,R,ugm-3,12.000,R,ugm-3 (BAM)
01-01-2021,15:00,2.92880,R,ugm-3,14.20427,R,ugm-3,18.69503,R,ugm-3,24.57700,R,ugm-3,20.000,R,ugm-3 (BAM)
01-01-2021,16:00,3.22834,R,ugm-3,15.63935,R,ugm-3,20.58940,R,ugm-3,22.75475,R,ugm-3,16.000,R,ugm-3 (BAM)
01-01-2021,17:00,2.86224,R,ugm-3,17.08864,R,ugm-3,21.47734,R,ugm-3,21.11940,R,ugm-3,17.000,R,ugm-3 (BAM)
01-01-2021,18:00,2.62926,R,ugm-3,15.40338,R,ugm-3,19.43486,R,ugm-3,27.94115,R,ugm-3,16.000,R,ugm-3 (BAM)
01-01-2021,19:00,1.93035,R,ugm-3,12.58480,R,ugm-3,15.54462,R,ugm-3,35.04325,R,ugm-3,20.000,R,ugm-3 (BAM)
01-01-2021,20:00,1.16486,R,ugm-3,10.71213,R,ugm-3,12.49823,R,ugm-3,36.63187,R,ugm-3,11.000,R,ugm-3 (BAM)
01-01-2021,21:00,0.93189,R,ugm-3,9.17608,R,ugm-3,10.60496,R,ugm-3,39.10826,R,ugm-3,9.000,R,ugm-3 (BAM)
01-01-2021,22:00,0.86533,R,ugm-3,8.82949,R,ugm-3,10.15630,R,ugm-3,38.78119,R,ugm-3,9.000,R,ugm-3 (BAM)
01-01-2021,23:00,0.53251,R,ugm-3,9.18448,R,ugm-3,10.00098,R,ugm-3,38.36067,R,ugm-3,9.000,R,ugm-3 (BAM)
01-01-2021,24:00,0.39938,R,ugm-3,9.23696,R,ugm-3,9.84934,R,ugm-3,38.36067,R,ugm-3,8.000,R,ugm-3 (BAM)
02-01-2021,01:00,0.48859,R,ugm-3,8.08129,R,ugm-3,8.83044,R,ugm-3,40.36982,R,ugm-3,8.000,R,ugm-3 (BAM)
02-01-2021,02:00,0.29981,R,ugm-3,7.35573,R,ugm-3,7.81544,R,ugm-3,41.35103,R,ugm-3,8.000,R,ugm-3 (BAM)
02-01-2021,03:00,0.35534,R,ugm-3,6.16062,R,ugm-3,6.70546,R,ugm-3,42.56586,R,ugm-3,9.000,R,ugm-3 (BAM)
02-01-2021,04:00,0.53300,R,ugm-3,6.55468,R,ugm-3,7.37194,R,ugm-3,38.78119,R,ugm-3,7.000,R,ugm-3 (BAM)
02-01-2021,05:00,0.69956,R,ugm-3,6.65053,R,ugm-3,7.72318,R,ugm-3,32.28651,R,ugm-3,11.000,R,ugm-3 (BAM)
02-01-2021,06:00,0.66625,R,ugm-3,7.14863,R,ugm-3,8.17021,R,ugm-3,31.39875,R,ugm-3,10.000,R,ugm-3 (BAM)
02-01-2021,07:00,1.93213,R,ugm-3,8.86225,R,ugm-3,11.82481,R,ugm-3,31.53892,R,ugm-3,11.000,R,ugm-3 (BAM)
02-01-2021,08:00,6.69583,R,ugm-3,14.18128,R,ugm-3,24.44808,R,ugm-3,26.58614,R,ugm-3,13.000,R,ugm-3 (BAM)
02-01-2021,09:00,10.69335,R,ugm-3,22.15311,R,ugm-3,38.54935,R,ugm-3,16.77403,R,ugm-3,11.000,R,ugm-3 (BAM)
02-01-2021,10:00,8.89447,R,ugm-3,21.44566,R,ugm-3,35.08365,R,ugm-3,22.61457,R,ugm-3,12.000,R,ugm-3 (BAM)
02-01-2021,11:00,6.82908,R,ugm-3,15.42164,R,ugm-3,25.89276,R,ugm-3,32.37996,R,ugm-3,9.000,R,ugm-3 (BAM)
02-01-2021,12:00,6.06290,R,ugm-3,15.63703,R,ugm-3,24.93334,R,ugm-3,33.50134,R,ugm-3,10.000,R,ugm-3 (BAM)
02-01-2021,13:00,6.26277,R,ugm-3,18.86574,R,ugm-3,28.46852,R,ugm-3,30.09047,R,ugm-3,8.000,R,ugm-3 (BAM)
02-01-2021,14:00,7.89509,R,ugm-3,25.24687,R,ugm-3,37.35250,R,ugm-3,20.93250,R,ugm-3,14.000,R,ugm-3 (BAM)
02-01-2021,15:00,5.82971,R,ugm-3,22.45609,R,ugm-3,31.39485,R,ugm-3,33.22100,R,ugm-3,13.000,R,ugm-3 (BAM)
02-01-2021,16:00,4.63045,R,ugm-3,18.75135,R,ugm-3,25.85127,R,ugm-3,41.77155,R,ugm-3,9.000,R,ugm-3 (BAM)
02-01-2021,17:00,5.46327,R,ugm-3,24.20454,R,ugm-3,32.58143,R,ugm-3,33.36117,R,ugm-3,14.000,R,ugm-3 (BAM)
02-01-2021,18:00,7.42871,R,ugm-3,21.57553,R,ugm-3,32.96607,R,ugm-3,35.37032,R,ugm-3,17.000,R,ugm-3 (BAM)
02-01-2021,19:00,9.32753,R,ugm-3,29.09465,R,ugm-3,43.39666,R,ugm-3,19.57749,R,ugm-3,22.000,R,ugm-3 (BAM)
02-01-2021,20:00,4.16408,R,ugm-3,20.80013,R,ugm-3,27.18496,R,ugm-3,26.25907,R,ugm-3,19.000,R,ugm-3 (BAM)
02-01-2021,21:00,3.63107,R,ugm-3,20.61254,R,ugm-3,26.18010,R,ugm-3,24.29665,R,ugm-3,16.000,R,ugm-3 (BAM)
02-01-2021,22:00,2.09870,R,ugm-3,18.05912,R,ugm-3,21.27707,R,ugm-3,24.43682,R,ugm-3,18.000,R,ugm-3 (BAM)
02-01-2021,23:00,1.26588,R,ugm-3,13.60063,R,ugm-3,15.54161,R,ugm-3,26.91321,R,ugm-3,15.000,R,ugm-3 (BAM)
02-01-2021,24:00,0.83282,R,ugm-3,11.57067,R,ugm-3,12.84764,R,ugm-3,28.78219,R,ugm-3,13.000,R,ugm-3 (BAM)
03-01-2021,01:00,0.76690,R,ugm-3,9.39069,R,ugm-3,10.56658,R,ugm-3,33.92186,R,ugm-3,12.000,R,ugm-3 (BAM)
03-01-2021,02:00,0.43346,R,ugm-3,6.75985,R,ugm-3,7.42449,R,ugm-3,38.22050,R,ugm-3,15.000,R,ugm-3 (BAM)
03-01-2021,03:00,0.50015,R,ugm-3,5.96196,R,ugm-3,6.72885,R,ugm-3,39.94930,R,ugm-3,13.000,R,ugm-3 (BAM)
03-01-2021,04:00,0.53349,R,ugm-3,5.41368,R,ugm-3,6.23170,R,ugm-3,40.79034,R,ugm-3,12.000,R,ugm-3 (BAM)
03-01-2021,05:00,0.33343,R,ugm-3,5.11937,R,ugm-3,5.63063,R,ugm-3,40.55672,R,ugm-3,10.000,R,ugm-3 (BAM)
03-01-2021,06:00,0.53349,R,ugm-3,4.61724,R,ugm-3,5.43525,R,ugm-3,40.46327,R,ugm-3,11.000,R,ugm-3 (BAM)
03-01-2021,07:00,3.33434,R,ugm-3,6.04930,R,ugm-3,11.16188,R,ugm-3,39.29516,R,ugm-3,9.000,R,ugm-3 (BAM)
03-01-2021,08:00,4.13458,R,ugm-3,7.07701,R,ugm-3,13.41662,R,ugm-3,38.17378,R,ugm-3,9.000,R,ugm-3 (BAM)
03-01-2021,09:00,4.63473,R,ugm-3,7.76286,R,ugm-3,14.86935,R,ugm-3,35.74411,R,ugm-3,9.000,R,ugm-3 (BAM)
03-01-2021,10:00,3.50106,R,ugm-3,7.48890,R,ugm-3,12.85711,R,ugm-3,35.74411,R,ugm-3,8.000,R,ugm-3 (BAM)
03-01-2021,11:00,3.96787,R,ugm-3,8.22523,R,ugm-3,14.30921,R,ugm-3,35.97773,R,ugm-3,9.000,R,ugm-3 (BAM)
03-01-2021,12:00,3.63443,R,ugm-3,7.28680,R,ugm-3,12.85951,R,ugm-3,38.73447,R,ugm-3,7.000,R,ugm-3 (BAM)
03-01-2021,13:00,4.33464,R,ugm-3,8.11757,R,ugm-3,14.76393,R,ugm-3,38.59429,R,ugm-3,6.000,R,ugm-3 (BAM)
03-01-2021,14:00,3.43437,R,ugm-3,6.99244,R,ugm-3,12.25840,R,ugm-3,39.52878,R,ugm-3,7.000,R,ugm-3 (BAM)
03-01-2021,15:00,3.30100,R,ugm-3,8.88654,R,ugm-3,13.94800,R,ugm-3,35.93101,R,ugm-3,6.000,R,ugm-3 (BAM)
03-01-2021,16:00,1.56714,R,ugm-3,7.92890,R,ugm-3,10.33182,R,ugm-3,37.51964,R,ugm-3,5.000,R,ugm-3 (BAM)
03-01-2021,17:00,1.30039,R,ugm-3,8.03420,R,ugm-3,10.02811,R,ugm-3,37.42619,R,ugm-3,8.000,R,ugm-3 (BAM)
03-01-2021,18:00,3.06759,R,ugm-3,11.08125,R,ugm-3,15.78483,R,ugm-3,33.92186,R,ugm-3,7.000,R,ugm-3 (BAM)
03-01-2021,19:00,1.26705,R,ugm-3,8.28365,R,ugm-3,10.22644,R,ugm-3,40.65016,R,ugm-3,6.000,R,ugm-3 (BAM)
03-01-2021,20:00,1.10033,R,ugm-3,7.29187,R,ugm-3,8.97903,R,ugm-3,43.68725,R,ugm-3,8.000,R,ugm-3 (BAM)
03-01-2021,21:00,2.20066,R,ugm-3,8.01434,R,ugm-3,11.38864,R,ugm-3,41.98959,R,ugm-3,8.000,R,ugm-3 (BAM)
03-01-2021,22:00,0.80024,R,ugm-3,5.80530,R,ugm-3,7.03232,R,ugm-3,39.55993,R,ugm-3,8.000,R,ugm-3 (BAM)
03-01-2021,23:00,0.36678,R,ugm-3,4.62031,R,ugm-3,5.18269,R,ugm-3,37.84670,R,ugm-3,9.000,R,ugm-3 (BAM)
03-01-2021,24:00,0.26675,R,ugm-3,3.97549,R,ugm-3,4.38450,R,ugm-3,39.94930,R,ugm-3,7.000,R,ugm-3 (BAM)
04-01-2021,01:00,0.30037,R,ugm-3,3.97773,R,ugm-3,4.43829,R,ugm-3,40.08947,R,ugm-3,6.000,R,ugm-3 (BAM)
04-01-2021,02:00,0.33374,R,ugm-3,3.82756,R,ugm-3,4.33929,R,ugm-3,41.63138,R,ugm-3,6.000,R,ugm-3 (BAM)
04-01-2021,03:00,0.46724,R,ugm-3,3.52576,R,ugm-3,4.24219,R,ugm-3,44.94880,R,ugm-3,7.000,R,ugm-3 (BAM)
04-01-2021,04:00,0.33374,R,ugm-3,2.43301,R,ugm-3,2.94474,R,ugm-3,49.34089,R,ugm-3,9.000,R,ugm-3 (BAM)
04-01-2021,05:00,0.40049,R,ugm-3,3.07896,R,ugm-3,3.69303,R,ugm-3,48.40640,R,ugm-3,6.000,R,ugm-3 (BAM)
04-01-2021,06:00,0.43387,R,ugm-3,4.17385,R,ugm-3,4.83910,R,ugm-3,45.55622,R,ugm-3,6.000,R,ugm-3 (BAM)
04-01-2021,07:00,4.87263,R,ugm-3,9.10604,R,ugm-3,16.57730,R,ugm-3,38.22050,R,ugm-3,5.000,R,ugm-3 (BAM)
04-01-2021,08:00,5.97398,R,ugm-3,12.66743,R,ugm-3,21.82741,R,ugm-3,35.79083,R,ugm-3,4.000,R,ugm-3 (BAM)
04-01-2021,09:00,4.23852,R,ugm-3,12.35698,R,ugm-3,18.85596,R,ugm-3,39.20171,R,ugm-3,6.000,R,ugm-3 (BAM)
04-01-2021,10:00,1.43509,R,ugm-3,8.03616,R,ugm-3,10.23660,R,ugm-3,44.15449,R,ugm-3,9.000,R,ugm-3 (BAM)
04-01-2021,11:00,1.23485,R,ugm-3,6.24769,R,ugm-3,8.14109,R,ugm-3,46.81778,R,ugm-3,8.000,R,ugm-3 (BAM)
04-01-2021,12:00,1.23485,R,ugm-3,5.30143,R,ugm-3,7.19484,R,ugm-3,47.56536,R,ugm-3,5.000,R,ugm-3 (BAM)
04-01-2021,13:00,1.16810,R,ugm-3,6.04987,R,ugm-3,7.84092,R,ugm-3,47.19157,R,ugm-3,9.000,R,ugm-3 (BAM)
04-01-2021,14:00,1.60196,R,ugm-3,5.14387,R,ugm-3,7.60017,R,ugm-3,49.80813,R,ugm-3,6.000,R,ugm-3 (BAM)
04-01-2021,15:00,1.20147,R,ugm-3,5.20246,R,ugm-3,7.04469,R,ugm-3,52.23780,R,ugm-3,8.000,R,ugm-3 (BAM)
04-01-2021,16:00,0.63411,R,ugm-3,6.50969,R,ugm-3,7.48198,R,ugm-3,52.05090,R,ugm-3,9.000,R,ugm-3 (BAM)
04-01-2021,17:00,1.40172,R,ugm-3,7.93689,R,ugm-3,10.08616,R,ugm-3,49.06054,R,ugm-3,8.000,R,ugm-3 (BAM)
04-01-2021,18:00,1.23485,R,ugm-3,7.24333,R,ugm-3,9.13674,R,ugm-3,51.44348,R,ugm-3,8.000,R,ugm-3 (BAM)
04-01-2021,19:00,1.13472,R,ugm-3,7.04630,R,ugm-3,8.78618,R,ugm-3,50.88279,R,ugm-3,7.000,R,ugm-3 (BAM)
04-01-2021,20:00,1.43509,R,ugm-3,7.13922,R,ugm-3,9.33966,R,ugm-3,49.06054,R,ugm-3,6.000,R,ugm-3 (BAM)
04-01-2021,21:00,0.83436,R,ugm-3,4.66255,R,ugm-3,5.94188,R,ugm-3,54.06005,R,ugm-3,5.000,R,ugm-3 (BAM)
04-01-2021,22:00,1.16810,R,ugm-3,4.95394,R,ugm-3,6.74500,R,ugm-3,50.97624,R,ugm-3,7.000,R,ugm-3 (BAM)
04-01-2021,23:00,1.16810,R,ugm-3,3.75880,R,ugm-3,5.54985,R,ugm-3,55.92902,R,ugm-3,7.000,R,ugm-3 (BAM)
04-01-2021,24:00,0.36712,R,ugm-3,2.18294,R,ugm-3,2.74584,R,ugm-3,57.42420,R,ugm-3,7.000,R,ugm-3 (BAM)
05-01-2021,01:00,0.35632,R,ugm-3,2.05187,R,ugm-3,2.59822,R,ugm-3,55.69540,R,ugm-3,6.000,R,ugm-3 (BAM)
05-01-2021,02:00,0.20043,R,ugm-3,1.88922,R,ugm-3,2.19654,R,ugm-3,55.78885,R,ugm-3,5.000,R,ugm-3 (BAM)
05-01-2021,03:00,0.26724,R,ugm-3,1.73822,R,ugm-3,2.14798,R,ugm-3,54.66746,R,ugm-3,6.000,R,ugm-3 (BAM)
05-01-2021,04:00,0.22270,R,ugm-3,2.05481,R,ugm-3,2.39628,R,ugm-3,52.56487,R,ugm-3,5.000,R,ugm-3 (BAM)
05-01-2021,05:00,0.62356,R,ugm-3,3.30829,R,ugm-3,4.26440,R,ugm-3,49.34089,R,ugm-3,3.000,R,ugm-3 (BAM)
05-01-2021,06:00,0.56788,R,ugm-3,2.82780,R,ugm-3,3.69854,R,ugm-3,51.02296,R,ugm-3,4.000,R,ugm-3 (BAM)
05-01-2021,07:00,4.87713,R,ugm-3,7.46589,R,ugm-3,14.94404,R,ugm-3,46.53743,R,ugm-3,4.000,R,ugm-3 (BAM)
05-01-2021,08:00,7.31569,R,ugm-3,16.48088,R,ugm-3,27.69811,R,ugm-3,36.95894,R,ugm-3,6.000,R,ugm-3 (BAM)
05-01-2021,09:00,7.31569,R,ugm-3,20.86592,R,ugm-3,32.08316,R,ugm-3,31.81927,R,ugm-3,6.000,R,ugm-3 (BAM)
05-01-2021,10:00,5.31139,R,ugm-3,16.07679,R,ugm-3,24.22081,R,ugm-3,36.58515,R,ugm-3,7.000,R,ugm-3 (BAM)
05-01-2021,11:00,5.11096,R,ugm-3,12.39368,R,ugm-3,20.23038,R,ugm-3,42.14534,R,ugm-3,6.000,R,ugm-3 (BAM)
05-01-2021,12:00,3.40731,R,ugm-3,10.33865,R,ugm-3,15.56311,R,ugm-3,46.02346,R,ugm-3,5.000,R,ugm-3 (BAM)
05-01-2021,13:00,3.20688,R,ugm-3,10.49252,R,ugm-3,15.40967,R,ugm-3,43.40690,R,ugm-3,10.000,R,ugm-3 (BAM)
05-01-2021,14:00,2.57219,R,ugm-3,8.21442,R,ugm-3,12.15838,R,ugm-3,44.85535,R,ugm-3,7.000,R,ugm-3 (BAM)
05-01-2021,15:00,2.23813,R,ugm-3,7.37471,R,ugm-3,10.80647,R,ugm-3,44.90208,R,ugm-3,5.000,R,ugm-3 (BAM)
05-01-2021,16:00,4.57648,R,ugm-3,10.96009,R,ugm-3,17.97727,R,ugm-3,38.08033,R,ugm-3,6.000,R,ugm-3 (BAM)
05-01-2021,17:00,4.00860,R,ugm-3,15.90565,R,ugm-3,22.05209,R,ugm-3,29.62322,R,ugm-3,6.000,R,ugm-3 (BAM)
05-01-2021,18:00,4.54308,R,ugm-3,16.54141,R,ugm-3,23.50737,R,ugm-3,27.28701,R,ugm-3,8.000,R,ugm-3 (BAM)
05-01-2021,19:00,3.80817,R,ugm-3,16.05937,R,ugm-3,21.89848,R,ugm-3,25.23114,R,ugm-3,12.000,R,ugm-3 (BAM)
05-01-2021,20:00,2.90623,R,ugm-3,9.90076,R,ugm-3,14.35692,R,ugm-3,31.67909,R,ugm-3,10.000,R,ugm-3 (BAM)
05-01-2021,21:00,2.57219,R,ugm-3,9.11089,R,ugm-3,13.05485,R,ugm-3,30.51099,R,ugm-3,8.000,R,ugm-3 (BAM)
05-01-2021,22:00,2.87283,R,ugm-3,8.00795,R,ugm-3,12.41289,R,ugm-3,32.23979,R,ugm-3,9.000,R,ugm-3 (BAM)
05-01-2021,23:00,1.33620,R,ugm-3,6.34800,R,ugm-3,8.39681,R,ugm-3,30.74461,R,ugm-3,8.000,R,ugm-3 (BAM)
05-01-2021,24:00,0.56788,R,ugm-3,6.26541,R,ugm-3,7.13615,R,ugm-3,28.36167,R,ugm-3,6.000,R,ugm-3 (BAM)
06-01-2021,01:00,0.36779,R,ugm-3,5.22742,R,ugm-3,5.79136,R,ugm-3,27.47390,R,ugm-3,8.000,R,ugm-3 (BAM)
06-01-2021,02:00,0.40123,R,ugm-3,6.52308,R,ugm-3,7.13829,R,ugm-3,25.09096,R,ugm-3,7.000,R,ugm-3 (BAM)
06-01-2021,03:00,0.33436,R,ugm-3,6.27522,R,ugm-3,6.78790,R,ugm-3,24.71717,R,ugm-3,6.000,R,ugm-3 (BAM)
06-01-2021,04:00,0.43467,R,ugm-3,5.32553,R,ugm-3,5.99201,R,ugm-3,24.90407,R,ugm-3,9.000,R,ugm-3 (BAM)
06-01-2021,05:00,0.53497,R,ugm-3,5.42296,R,ugm-3,6.24324,R,ugm-3,24.99752,R,ugm-3,8.000,R,ugm-3 (BAM)
06-01-2021,06:00,0.83589,R,ugm-3,4.66823,R,ugm-3,5.94991,R,ugm-3,28.40839,R,ugm-3,6.000,R,ugm-3 (BAM)
06-01-2021,07:00,5.61721,R,ugm-3,7.70197,R,ugm-3,16.31491,R,ugm-3,27.75425,R,ugm-3,6.000,R,ugm-3 (BAM)
06-01-2021,08:00,8.29207,R,ugm-3,14.37304,R,ugm-3,27.08738,R,ugm-3,22.10061,R,ugm-3,8.000,R,ugm-3 (BAM)
06-01-2021,09:00,9.16141,R,ugm-3,17.94338,R,ugm-3,31.99067,R,ugm-3,20.55870,R,ugm-3,8.000,R,ugm-3 (BAM)
06-01-2021,10:00,7.55649,R,ugm-3,17.48073,R,ugm-3,29.06718,R,ugm-3,19.15697,R,ugm-3,7.000,R,ugm-3 (BAM)
06-01-2021,11:00,5.04880,R,ugm-3,12.60083,R,ugm-3,20.34221,R,ugm-3,24.24993,R,ugm-3,8.000,R,ugm-3 (BAM)
06-01-2021,12:00,5.18255,R,ugm-3,12.34843,R,ugm-3,20.29489,R,ugm-3,24.20320,R,ugm-3,10.000,R,ugm-3 (BAM)
06-01-2021,13:00,6.85434,R,ugm-3,12.95893,R,ugm-3,23.46876,R,ugm-3,26.39925,R,ugm-3,7.000,R,ugm-3 (BAM)
06-01-2021,14:00,6.08531,R,ugm-3,13.32513,R,ugm-3,22.65582,R,ugm-3,25.74511,R,ugm-3,7.000,R,ugm-3 (BAM)
06-01-2021,15:00,5.88470,R,ugm-3,14.72559,R,ugm-3,23.74866,R,ugm-3,28.12804,R,ugm-3,7.000,R,ugm-3 (BAM)
06-01-2021,16:00,7.48962,R,ugm-3,21.91885,R,ugm-3,33.40277,R,ugm-3,23.87613,R,ugm-3,20.000,R,ugm-3 (BAM)
06-01-2021,17:00,16.85163,R,ugm-3,30.93196,R,ugm-3,56.77077,R,ugm-3,11.54091,R,ugm-3,13.000,R,ugm-3 (BAM)
06-01-2021,18:00,9.79669,R,ugm-3,29.69432,R,ugm-3,44.71569,R,ugm-3,10.79332,R,ugm-3,23.000,R,ugm-3 (BAM)
06-01-2021,19:00,11.23442,R,ugm-3,30.60907,R,ugm-3,47.83495,R,ugm-3,8.73745,R,ugm-3,20.000,R,ugm-3 (BAM)
06-01-2021,20:00,8.39238,R,ugm-3,28.17990,R,ugm-3,41.04804,R,ugm-3,10.69987,R,ugm-3,18.000,R,ugm-3 (BAM)
06-01-2021,21:00,4.44696,R,ugm-3,20.93949,R,ugm-3,27.75806,R,ugm-3,21.02595,R,ugm-3,18.000,R,ugm-3 (BAM)
06-01-2021,22:00,2.40738,R,ugm-3,17.19611,R,ugm-3,20.88737,R,ugm-3,27.03781,R,ugm-3,19.000,R,ugm-3 (BAM)
06-01-2021,23:00,2.74173,R,ugm-3,17.58732,R,ugm-3,21.79125,R,ugm-3,25.04424,R,ugm-3,19.000,R,ugm-3 (BAM)
06-01-2021,24:00,0.76902,R,ugm-3,17.38226,R,ugm-3,18.56141,R,ugm-3,26.35252,R,ugm-3,22.000,R,ugm-3 (BAM)
07-01-2021,01:00,0.63587,R,ugm-3,18.69558,R,ugm-3,19.67056,R,ugm-3,26.77304,R,ugm-3,18.000,R,ugm-3 (BAM)
07-01-2021,02:00,0.50200,R,ugm-3,19.69635,R,ugm-3,20.46607,R,ugm-3,26.72632,R,ugm-3,20.000,R,ugm-3 (BAM)
07-01-2021,03:00,0.40160,R,ugm-3,21.24516,R,ugm-3,21.86093,R,ugm-3,23.36216,R,ugm-3,26.000,R,ugm-3 (BAM)
07-01-2021,04:00,0.83666,R,ugm-3,22.98136,R,ugm-3,24.26422,R,ugm-3,17.52162,R,ugm-3,21.000,R,ugm-3 (BAM)
07-01-2021,05:00,3.01199,R,ugm-3,27.72142,R,ugm-3,32.33974,R,ugm-3,7.47589,R,ugm-3,27.000,R,ugm-3 (BAM)
07-01-2021,06:00,5.12039,R,ugm-3,36.50416,R,ugm-3,44.35531,R,ugm-3,1.72880,R,ugm-3,19.000,R,ugm-3 (BAM)
07-01-2021,07:00,17.60342,R,ugm-3,39.11416,R,ugm-3,66.10569,R,ugm-3,0.51397,R,ugm-3,22.000,R,ugm-3 (BAM)
07-01-2021,08:00,28.58046,R,ugm-3,41.00994,R,ugm-3,84.83270,R,ugm-3,0.60742,R,ugm-3,24.000,R,ugm-3 (BAM)
07-01-2021,09:00,33.46658,R,ugm-3,39.20243,R,ugm-3,90.51713,R,ugm-3,1.68208,R,ugm-3,29.000,R,ugm-3 (BAM)
07-01-2021,10:00,25.33420,R,ugm-3,35.14613,R,ugm-3,73.99136,R,ugm-3,5.70037,R,ugm-3,29.000,R,ugm-3 (BAM)
07-01-2021,11:00,26.60593,R,ugm-3,30.77659,R,ugm-3,71.57178,R,ugm-3,9.85883,R,ugm-3,19.000,R,ugm-3 (BAM)
07-01-2021,12:00,30.52152,R,ugm-3,34.67862,R,ugm-3,81.47763,R,ugm-3,7.52262,R,ugm-3,23.000,R,ugm-3 (BAM)
07-01-2021,13:00,37.11443,R,ugm-3,37.02313,R,ugm-3,93.93114,R,ugm-3,6.21434,R,ugm-3,27.000,R,ugm-3 (BAM)
07-01-2021,14:00,29.38365,R,ugm-3,36.54984,R,ugm-3,81.60414,R,ugm-3,7.14882,R,ugm-3,23.000,R,ugm-3 (BAM)
07-01-2021,15:00,25.46806,R,ugm-3,37.18724,R,ugm-3,76.23773,R,ugm-3,5.70037,R,ugm-3,24.000,R,ugm-3 (BAM)
07-01-2021,16:00,21.78674,R,ugm-3,40.36361,R,ugm-3,73.76948,R,ugm-3,3.83140,R,ugm-3,24.000,R,ugm-3 (BAM)
07-01-2021,17:00,16.09742,R,ugm-3,43.33609,R,ugm-3,68.01846,R,ugm-3,1.58863,R,ugm-3,18.000,R,ugm-3 (BAM)
07-01-2021,18:00,10.44157,R,ugm-3,37.37793,R,ugm-3,53.38812,R,ugm-3,2.33622,R,ugm-3,24.000,R,ugm-3 (BAM)
07-01-2021,19:00,17.43609,R,ugm-3,35.42293,R,ugm-3,62.15789,R,ugm-3,1.63535,R,ugm-3,24.000,R,ugm-3 (BAM)
07-01-2021,20:00,11.81370,R,ugm-3,35.05146,R,ugm-3,53.16555,R,ugm-3,1.21483,R,ugm-3,24.000,R,ugm-3 (BAM)
07-01-2021,21:00,9.70531,R,ugm-3,33.85192,R,ugm-3,48.73318,R,ugm-3,1.02794,R,ugm-3,25.000,R,ugm-3 (BAM)
07-01-2021,22:00,5.82319,R,ugm-3,29.94894,R,ugm-3,38.87770,R,ugm-3,3.13053,R,ugm-3,20.000,R,ugm-3 (BAM)
07-01-2021,23:00,6.86065,R,ugm-3,30.17460,R,ugm-3,40.69412,R,ugm-3,1.72880,R,ugm-3,21.000,R,ugm-3 (BAM)
07-01-2021,24:00,5.52199,R,ugm-3,28.35903,R,ugm-3,36.82595,R,ugm-3,1.96242,R,ugm-3,24.000,R,ugm-3 (BAM)
08-01-2021,01:00,3.97502,R,ugm-3,26.13507,R,ugm-3,32.23002,R,ugm-3,1.30828,R,ugm-3,24.000,R,ugm-3 (BAM)
08-01-2021,02:00,3.14875,R,ugm-3,25.38837,R,ugm-3,30.21640,R,ugm-3,1.16811,R,ugm-3,22.000,R,ugm-3 (BAM)
08-01-2021,03:00,6.13002,R,ugm-3,25.26991,R,ugm-3,34.66914,R,ugm-3,0.37380,R,ugm-3,23.000,R,ugm-3 (BAM)
08-01-2021,04:00,5.59406,R,ugm-3,23.13538,R,ugm-3,31.71282,R,ugm-3,0.74759,R,ugm-3,23.000,R,ugm-3 (BAM)
08-01-2021,05:00,4.42165,R,ugm-3,22.39664,R,ugm-3,29.17642,R,ugm-3,0.65414,R,ugm-3,27.000,R,ugm-3 (BAM)
08-01-2021,06:00,10.36185,R,ugm-3,22.85930,R,ugm-3,38.74725,R,ugm-3,0.42052,R,ugm-3,27.000,R,ugm-3 (BAM)
08-01-2021,07:00,15.84426,R,ugm-3,22.89985,R,ugm-3,47.19404,R,ugm-3,0.60742,R,ugm-3,25.000,R,ugm-3 (BAM)
08-01-2021,08:00,33.12890,R,ugm-3,26.04774,R,ugm-3,76.84468,R,ugm-3,0.51397,R,ugm-3,23.000,R,ugm-3 (BAM)
08-01-2021,09:00,38.72296,R,ugm-3,28.41531,R,ugm-3,87.78968,R,ugm-3,0.70087,R,ugm-3,30.000,R,ugm-3 (BAM)
08-01-2021,10:00,47.03031,R,ugm-3,28.47423,R,ugm-3,100.58637,R,ugm-3,1.91570,R,ugm-3,41.000,R,ugm-3 (BAM)
08-01-2021,11:00,36.41164,R,ugm-3,29.26660,R,ugm-3,85.09700,R,ugm-3,2.47639,R,ugm-3,36.000,R,ugm-3 (BAM)
08-01-2021,12:00,33.66486,R,ugm-3,27.78187,R,ugm-3,79.40060,R,ugm-3,3.45760,R,ugm-3,29.000,R,ugm-3 (BAM)
08-01-2021,13:00,26.52992,R,ugm-3,25.74883,R,ugm-3,66.42747,R,ugm-3,6.72830,R,ugm-3,32.000,R,ugm-3 (BAM)
08-01-2021,14:00,19.22749,R,ugm-3,28.91117,R,ugm-3,58.39291,R,ugm-3,7.19555,R,ugm-3,33.000,R,ugm-3 (BAM)
08-01-2021,15:00,12.96348,R,ugm-3,29.20433,R,ugm-3,49.08139,R,ugm-3,11.49418,R,ugm-3,30.000,R,ugm-3 (BAM)
08-01-2021,16:00,4.55564,R,ugm-3,22.25866,R,ugm-3,29.24388,R,ugm-3,30.09047,R,ugm-3,19.000,R,ugm-3 (BAM)
08-01-2021,17:00,3.08176,R,ugm-3,21.39378,R,ugm-3,26.11907,R,ugm-3,29.57650,R,ugm-3,16.000,R,ugm-3 (BAM)
08-01-2021,18:00,1.07192,R,ugm-3,15.05033,R,ugm-3,16.69391,R,ugm-3,36.02446,R,ugm-3,18.000,R,ugm-3 (BAM)
08-01-2021,19:00,1.87585,R,ugm-3,18.82545,R,ugm-3,21.70172,R,ugm-3,30.37081,R,ugm-3,20.000,R,ugm-3 (BAM)
08-01-2021,20:00,1.87585,R,ugm-3,18.92515,R,ugm-3,21.80141,R,ugm-3,28.03460,R,ugm-3,23.000,R,ugm-3 (BAM)
08-01-2021,21:00,3.18225,R,ugm-3,17.79691,R,ugm-3,22.67629,R,ugm-3,27.52063,R,ugm-3,22.000,R,ugm-3 (BAM)
08-01-2021,22:00,1.33990,R,ugm-3,15.94223,R,ugm-3,17.99671,R,ugm-3,26.81976,R,ugm-3,23.000,R,ugm-3 (BAM)
08-01-2021,23:00,2.14383,R,ugm-3,16.67242,R,ugm-3,19.95958,R,ugm-3,25.60493,R,ugm-3,22.000,R,ugm-3 (BAM)
08-01-2021,24:00,0.70345,R,ugm-3,13.21128,R,ugm-3,14.28988,R,ugm-3,27.66080,R,ugm-3,16.000,R,ugm-3 (BAM)
09-01-2021,01:00,0.40234,R,ugm-3,12.22910,R,ugm-3,12.84601,R,ugm-3,24.53027,R,ugm-3,24.000,R,ugm-3 (BAM)
09-01-2021,02:00,0.60351,R,ugm-3,11.82473,R,ugm-3,12.75010,R,ugm-3,21.35302,R,ugm-3,27.000,R,ugm-3 (BAM)
09-01-2021,03:00,0.56998,R,ugm-3,11.57566,R,ugm-3,12.44962,R,ugm-3,18.31594,R,ugm-3,22.000,R,ugm-3 (BAM)
09-01-2021,04:00,0.50292,R,ugm-3,11.57713,R,ugm-3,12.34827,R,ugm-3,18.08232,R,ugm-3,32.000,R,ugm-3 (BAM)
09-01-2021,05:00,2.11227,R,ugm-3,19.33218,R,ugm-3,22.57096,R,ugm-3,5.88727,R,ugm-3,28.000,R,ugm-3 (BAM)
09-01-2021,06:00,1.07290,R,ugm-3,13.31205,R,ugm-3,14.95714,R,ugm-3,12.61557,R,ugm-3,21.000,R,ugm-3 (BAM)
09-01-2021,07:00,2.04522,R,ugm-3,17.38539,R,ugm-3,20.52135,R,ugm-3,9.20469,R,ugm-3,16.000,R,ugm-3 (BAM)
09-01-2021,08:00,2.48108,R,ugm-3,19.72283,R,ugm-3,23.52711,R,ugm-3,9.39159,R,ugm-3,15.000,R,ugm-3 (BAM)
09-01-2021,09:00,5.26392,R,ugm-3,21.50641,R,ugm-3,29.57764,R,ugm-3,8.69073,R,ugm-3,13.000,R,ugm-3 (BAM)
09-01-2021,10:00,7.37620,R,ugm-3,16.96191,R,ugm-3,28.27192,R,ugm-3,12.33522,R,ugm-3,13.000,R,ugm-3 (BAM)
09-01-2021,11:00,14.51770,R,ugm-3,19.69350,R,ugm-3,41.95366,R,ugm-3,9.76539,R,ugm-3,12.000,R,ugm-3 (BAM)
09-01-2021,12:00,12.33837,R,ugm-3,18.79479,R,ugm-3,37.71335,R,ugm-3,12.38195,R,ugm-3,13.000,R,ugm-3 (BAM)
09-01-2021,13:00,12.00308,R,ugm-3,21.34978,R,ugm-3,39.75425,R,ugm-3,14.48454,R,ugm-3,12.000,R,ugm-3 (BAM)
09-01-2021,14:00,9.95786,R,ugm-3,21.54682,R,ugm-3,36.81533,R,ugm-3,19.06353,R,ugm-3,13.000,R,ugm-3 (BAM)
09-01-2021,15:00,5.23039,R,ugm-3,18.70919,R,ugm-3,26.72901,R,ugm-3,27.33373,R,ugm-3,10.000,R,ugm-3 (BAM)
09-01-2021,16:00,4.22455,R,ugm-3,18.98207,R,ugm-3,25.45962,R,ugm-3,29.66995,R,ugm-3,14.000,R,ugm-3 (BAM)
09-01-2021,17:00,3.68810,R,ugm-3,21.04217,R,ugm-3,26.69718,R,ugm-3,29.01581,R,ugm-3,14.000,R,ugm-3 (BAM)
09-01-2021,18:00,3.85574,R,ugm-3,18.29108,R,ugm-3,24.20313,R,ugm-3,32.33323,R,ugm-3,15.000,R,ugm-3 (BAM)
09-01-2021,19:00,3.41987,R,ugm-3,16.30319,R,ugm-3,21.54692,R,ugm-3,34.24893,R,ugm-3,16.000,R,ugm-3 (BAM)
09-01-2021,20:00,2.14580,R,ugm-3,13.28587,R,ugm-3,16.57605,R,ugm-3,37.56636,R,ugm-3,16.000,R,ugm-3 (BAM)
09-01-2021,21:00,1.10643,R,ugm-3,9.86360,R,ugm-3,11.56010,R,ugm-3,41.21086,R,ugm-3,17.000,R,ugm-3 (BAM)
09-01-2021,22:00,0.73762,R,ugm-3,7.72442,R,ugm-3,8.85542,R,ugm-3,42.47241,R,ugm-3,19.000,R,ugm-3 (BAM)
09-01-2021,23:00,0.53645,R,ugm-3,6.03090,R,ugm-3,6.85345,R,ugm-3,43.29788,R,ugm-3,18.000,R,ugm-3 (BAM)
09-01-2021,24:00,0.26823,R,ugm-3,4.63862,R,ugm-3,5.04989,R,ugm-3,45.22915,R,ugm-3,19.000,R,ugm-3 (BAM)
10-01-2021,01:00,0.20135,R,ugm-3,4.09385,R,ugm-3,4.40258,R,ugm-3,43.96759,R,ugm-3,14.000,R,ugm-3 (BAM)
10-01-2021,02:00,0.23491,R,ugm-3,3.64319,R,ugm-3,4.00339,R,ugm-3,42.79948,R,ugm-3,20.000,R,ugm-3 (BAM)
10-01-2021,03:00,0.06712,R,ugm-3,3.64709,R,ugm-3,3.75000,R,ugm-3,41.67810,R,ugm-3,17.000,R,ugm-3 (BAM)
10-01-2021,04:00,0.13424,R,ugm-3,3.64550,R,ugm-3,3.85132,R,ugm-3,40.69689,R,ugm-3,12.000,R,ugm-3 (BAM)
10-01-2021,05:00,0.26847,R,ugm-3,3.59235,R,ugm-3,4.00400,R,ugm-3,38.82792,R,ugm-3,18.000,R,ugm-3 (BAM)
10-01-2021,06:00,0.13424,R,ugm-3,3.89534,R,ugm-3,4.10117,R,ugm-3,37.65981,R,ugm-3,18.000,R,ugm-3 (BAM)
10-01-2021,07:00,0.33559,R,ugm-3,4.99017,R,ugm-3,5.50474,R,ugm-3,35.37032,R,ugm-3,17.000,R,ugm-3 (BAM)
10-01-2021,08:00,1.14101,R,ugm-3,8.02008,R,ugm-3,9.76960,R,ugm-3,30.37081,R,ugm-3,13.000,R,ugm-3 (BAM)
10-01-2021,09:00,2.01354,R,ugm-3,13.74727,R,ugm-3,16.83465,R,ugm-3,24.43682,R,ugm-3,15.000,R,ugm-3 (BAM)
10-01-2021,10:00,3.89284,R,ugm-3,14.60287,R,ugm-3,20.57180,R,ugm-3,23.64251,R,ugm-3,17.000,R,ugm-3 (BAM)
10-01-2021,11:00,3.42301,R,ugm-3,8.96615,R,ugm-3,14.21470,R,ugm-3,33.68824,R,ugm-3,14.000,R,ugm-3 (BAM)